Louisville Bowman, KY

6:31 AM EST on December 10, 2019 (GMT -0500)
Bowman

Weather History for KLOU - May, 2019

Change the Weather History Date:

Tuesday, May 21, 2019

  Actual Average Record
Temperature  
Mean Temperature 65 °F 68 °F  
Max Temperature 76 °F 78 °F 88 °F (1953)
Min Temperature 54 °F 58 °F 39 °F (1954)
Degree Days  
Heating Degree Days 0 2  
Month to date heating degree days 47 63  
Since 1 July heating degree days 4101 4254  
Cooling Degree Days 0 4  
Month to date cooling degree days 61 58  
Year to date cooling degree days 78 92  
Growing Degree Days 14 (Base 50)    
Moisture  
Dew Point 52 °F    
Average Humidity 65    
Maximum Humidity 77    
Minimum Humidity 53    
Precipitation  
Precipitation 0.00 in 0.17 in 2.17 in (1990)
Month to date precipitation 2.72 3.64  
Year to date precipitation 26.13 18.44  
Sea Level Pressure  
Sea Level Pressure 29.99 in    
Wind  
Wind Speed 11 mph (ENE)    
Max Wind Speed 18 mph    
Max Gust Speed 28 mph    
Visibility 10 miles    
Events      
T = Trace of Precipitation, MM = Missing Value Source: NWS Daily Summary

Daily Weather History Graph

Daily Weather History Graph

Search for Another Location

Airport or City:

Astronomy

May. 21, 2019 Rise Set
Actual Time 6:27 AM EDT 8:51 PM EDT
Civil Twilight 5:57 AM EDT 9:21 PM EDT
Nautical Twilight 5:19 AM EDT 9:59 PM EDT
Astronomical Twilight 4:38 AM EDT 10:40 PM EDT
Moon 11:46 PM EDT (5/21) 8:43 AM EDT (5/21)
Length of Visible Light 15h 24m
Length of Day
14h 24m
Waning Gibbous, 91% of the Moon is Illuminated
May 21
Waning Gibbous
May 26
Last Quarter
Jun 3
New
Jun 10
First Quarter
Jun 17
Full

Hourly Weather History & Observations

Time (EDT) Temp. Dew Point Humidity Pressure Visibility Wind Dir Wind Speed Gust Speed Precip Events Conditions
12:53 AM 57.9 °F 48.9 °F 72% 30.05 in 10.0 mi NNE 6.9 mph - N/A   Clear
1:53 AM 57.9 °F 48.0 °F 70% 30.04 in 10.0 mi NNE 9.2 mph - N/A   Clear
2:53 AM 55.9 °F 48.0 °F 75% 30.04 in 10.0 mi NNE 5.8 mph - N/A   Clear
3:53 AM 55.0 °F 46.9 °F 74% 30.03 in 10.0 mi NE 8.1 mph - N/A   Clear
4:53 AM 55.0 °F 46.9 °F 74% 30.02 in 10.0 mi NE 9.2 mph - N/A   Clear
5:53 AM 54.0 °F 46.0 °F 75% 30.02 in 10.0 mi NE 10.4 mph - N/A   Clear
6:53 AM 54.0 °F 46.0 °F 75% 30.06 in 10.0 mi ENE 8.1 mph - N/A   Clear
7:53 AM 54.0 °F 46.0 °F 75% 30.08 in 10.0 mi NE 9.2 mph - N/A   Clear
8:53 AM 55.0 °F 46.0 °F 72% 30.07 in 10.0 mi ENE 11.5 mph - N/A   Clear
9:53 AM 57.0 °F 48.0 °F 72% 30.07 in 10.0 mi ENE 10.4 mph - N/A   Clear
10:53 AM 60.1 °F 48.9 °F 67% 30.06 in 10.0 mi East 9.2 mph - N/A   Clear
11:53 AM 62.1 °F 50.0 °F 65% 30.05 in 10.0 mi ENE 12.7 mph - N/A   Clear
12:53 PM 66.0 °F 53.1 °F 63% 30.01 in 10.0 mi East 13.8 mph 19.6 mph N/A   Clear
1:53 PM 71.1 °F 55.0 °F 57% 29.97 in 10.0 mi East 11.5 mph - N/A   Clear
2:53 PM 73.0 °F 55.9 °F 55% 29.97 in 10.0 mi ENE 10.4 mph 20.7 mph N/A   Clear
3:53 PM 75.0 °F 57.0 °F 53% 29.96 in 10.0 mi ENE 13.8 mph 19.6 mph N/A   Clear
4:53 PM 75.9 °F 57.9 °F 54% 29.94 in 10.0 mi North - - N/A   Clear
5:53 PM 75.9 °F 57.9 °F 54% 29.93 in 10.0 mi East 15.0 mph - N/A   Clear
6:53 PM 75.0 °F 57.9 °F 55% 29.93 in 10.0 mi East 13.8 mph 24.2 mph N/A   Clear
7:53 PM 73.9 °F 57.9 °F 57% 29.91 in 10.0 mi East 12.7 mph - N/A   Clear
8:53 PM 72.0 °F 57.0 °F 59% 29.91 in 10.0 mi ENE 9.2 mph - N/A   Clear
9:53 PM 71.1 °F 55.9 °F 59% 29.91 in 10.0 mi East 15.0 mph 21.9 mph N/A   Clear
10:53 PM 70.0 °F 55.9 °F 61% 29.93 in 10.0 mi East 12.7 mph 21.9 mph N/A   Clear
11:53 PM 69.1 °F 55.0 °F 61% 29.91 in 10.0 mi East 15.0 mph 26.5 mph N/A   Clear